TimeCST,TemperatureF,Dew PointF,Humidity,Sea Level PressureIn,VisibilityMPH,Wind Direction,Wind SpeedMPH,Gust SpeedMPH,PrecipitationIn,Events,Conditions,WindDirDegrees,DateUTC
12:53 AM,46.9,37.9,71,30.31,10.0,NW,12.7,-,N/A,,Overcast,310,2013-01-04 06:53:00
1:53 AM,48.0,39.0,71,30.30,10.0,NW,15.0,23.0,N/A,,Overcast,320,2013-01-04 07:53:00
2:40 AM,48.2,39.2,71,30.30,10.0,NNW,12.7,-,N/A,,Overcast,330,2013-01-04 08:40:00
2:53 AM,48.0,39.0,71,30.29,10.0,NNW,13.8,19.6,N/A,,Overcast,330,2013-01-04 08:53:00
3:53 AM,46.9,37.9,71,30.30,10.0,NNW,13.8,-,N/A,,Overcast,330,2013-01-04 09:53:00
4:53 AM,46.9,37.9,71,30.30,10.0,NNW,13.8,25.3,N/A,,Overcast,340,2013-01-04 10:53:00
5:53 AM,46.9,37.0,68,30.32,10.0,NNW,16.1,23.0,N/A,,Overcast,330,2013-01-04 11:53:00
6:53 AM,46.0,37.9,73,30.34,10.0,NNW,13.8,19.6,N/A,,Overcast,330,2013-01-04 12:53:00
7:53 AM,45.0,39.9,82,30.36,8.0,NW,11.5,23.0,N/A,,Overcast,320,2013-01-04 13:53:00
8:53 AM,45.0,41.0,86,30.37,6.0,NW,12.7,-,N/A,,Overcast,320,2013-01-04 14:53:00
9:33 AM,44.6,42.8,93,30.39,6.0,NW,15.0,-,N/A,,Overcast,320,2013-01-04 15:33:00
9:53 AM,45.0,42.1,90,30.39,6.0,NW,17.3,24.2,N/A,,Overcast,320,2013-01-04 15:53:00
10:39 AM,44.6,42.8,93,30.37,4.0,NW,13.8,-,N/A,,Overcast,320,2013-01-04 16:39:00
10:53 AM,46.0,43.0,89,30.37,3.0,NW,15.0,21.9,N/A,,Overcast,320,2013-01-04 16:53:00
11:05 AM,46.4,44.6,93,30.37,3.0,NW,16.1,21.9,N/A,,Overcast,320,2013-01-04 17:05:00
11:53 AM,46.0,44.1,93,30.35,3.0,NW,16.1,24.2,0.00,Rain,Light Rain,320,2013-01-04 17:53:00
12:53 PM,46.0,45.0,96,30.32,5.0,NW,17.3,24.2,0.00,,Overcast,320,2013-01-04 18:53:00
1:53 PM,46.0,45.0,96,30.30,5.0,NW,16.1,24.2,0.00,Rain,Light Rain,320,2013-01-04 19:53:00
2:37 PM,46.4,44.6,93,30.28,2.0,NW,18.4,26.5,0.01,Rain,Light Rain,320,2013-01-04 20:37:00
2:53 PM,46.0,45.0,96,30.27,2.0,NW,17.3,26.5,0.01,Rain,Light Rain,320,2013-01-04 20:53:00
3:53 PM,46.0,45.0,96,30.27,2.0,NW,15.0,27.6,0.00,,Overcast,320,2013-01-04 21:53:00
4:00 PM,46.4,44.6,93,30.28,4.0,NW,12.7,27.6,N/A,,Overcast,320,2013-01-04 22:00:00
4:53 PM,46.0,45.0,96,30.28,4.0,NW,16.1,24.2,0.00,,Overcast,320,2013-01-04 22:53:00
5:28 PM,46.4,44.6,93,30.29,4.0,NW,13.8,23.0,N/A,,Overcast,320,2013-01-04 23:28:00
5:45 PM,48.2,44.6,87,30.29,4.0,NW,12.7,-,0.00,Rain,Light Rain,320,2013-01-04 23:45:00
5:53 PM,46.0,45.0,96,30.29,5.0,NNW,12.7,-,0.00,Rain,Light Rain,330,2013-01-04 23:53:00
6:53 PM,46.0,44.1,93,30.30,8.0,NW,18.4,24.2,0.00,,Overcast,320,2013-01-05 00:53:00
7:53 PM,46.0,44.1,93,30.30,4.0,NNW,13.8,25.3,0.00,Rain,Light Rain,330,2013-01-05 01:53:00
8:15 PM,46.4,44.6,93,30.30,3.0,NNW,17.3,24.2,0.00,Rain,Light Rain,330,2013-01-05 02:15:00
8:53 PM,46.0,45.0,96,30.30,6.0,NW,17.3,26.5,0.01,Rain,Light Rain,320,2013-01-05 02:53:00
9:53 PM,45.0,44.1,97,30.30,7.0,NNW,16.1,26.5,0.00,Rain,Light Rain,330,2013-01-05 03:53:00
10:53 PM,45.0,45.0,100,30.30,5.0,NW,15.0,-,0.00,Rain,Light Rain,320,2013-01-05 04:53:00
11:53 PM,45.0,44.1,97,30.28,5.0,NNW,15.0,23.0,0.01,Rain,Light Rain,330,2013-01-05 05:53:00